This is the latest recevied weather packets stored in our database for station/object OK2KJT-11. If no packets are shown the sender has not sent any weather packets the latest 10 day(s).
| Time | Temp. | Humidity | Pressure | Rain* | Wind** | Luminosity | Snow |
|---|---|---|---|---|---|---|---|
| 1788448153 | 19.44° C | 54% | 1020.7 hPa | - | - | - | - |
| 1788447554 | 20° C | 54% | 1020.8 hPa | - | - | - | - |
| 1788446954 | 19.44° C | 55% | 1020.7 hPa | - | - | - | - |
| 1788446355 | 19.44° C | 54% | 1020.9 hPa | - | - | - | - |
| 1788445754 | 19.44° C | 55% | 1021 hPa | - | - | - | - |
| 1788445155 | 18.33° C | 56% | 1020.9 hPa | - | - | - | - |
| 1788444555 | 18.33° C | 58% | 1020.9 hPa | - | - | - | - |
| 1788443955 | 18.33° C | 57% | 1020.9 hPa | - | - | - | - |
| 1788443355 | 18.33° C | 56% | 1021 hPa | - | - | - | - |
| 1788442755 | 18.33° C | 55% | 1021.1 hPa | - | - | - | - |
| 1788442155 | 18.33° C | 54% | 1021.1 hPa | - | - | - | - |
| 1788441555 | 18.33° C | 55% | 1021.1 hPa | - | - | - | - |
| 1788440955 | 18.33° C | 55% | 1021 hPa | - | - | - | - |
| 1788440356 | 17.78° C | 58% | 1021.1 hPa | - | - | - | - |
| 1788439756 | 17.22° C | 57% | 1021.3 hPa | - | - | - | - |
| 1788439156 | 17.78° C | 57% | 1021.2 hPa | - | - | - | - |
| 1788438556 | 17.78° C | 56% | 1021.3 hPa | - | - | - | - |
| 1788437956 | 18.33° C | 54% | 1021.4 hPa | - | - | - | - |
| 1788437356 | 18.89° C | 51% | 1021.4 hPa | - | - | - | - |
| 1788436756 | 20° C | 49% | 1021.4 hPa | - | - | - | - |
| 1788436157 | 20° C | 46% | 1021.5 hPa | - | - | - | - |
| 1788435557 | 20° C | 45% | 1021.5 hPa | - | - | - | - |
| 1788434957 | 20° C | 47% | 1021.5 hPa | - | - | - | - |
| 1788434357 | 19.44° C | 48% | 1021.4 hPa | - | - | - | - |
| 1788433758 | 20° C | 48% | 1021.6 hPa | - | - | - | - |
* Rain since midnight (hover to see other rain measurements)
** Current wind speed in m/s (hover to see current wind gust speed)